This is the latest recevied weather packets stored in our database for station/object K5GHS-1. If no packets are shown the sender has not sent any weather packets the latest 10 day(s).
| Time | Temp. | Humidity | Pressure | Rain* | Wind** | Luminosity | Snow |
|---|---|---|---|---|---|---|---|
| 1777387834 | 25° C | 89% | 1010.7 hPa | 0 mm | - | 19 W/m² | - |
| 1777387531 | 25° C | 89% | 1010.6 hPa | 0 mm | - | 25 W/m² | - |
| 1777387227 | 25° C | 89% | 1010.6 hPa | 0 mm | - | 19 W/m² | - |
| 1777386922 | 25° C | 89% | 1010.6 hPa | 0 mm | - | 16 W/m² | - |
| 1777386620 | 25° C | 89% | 1010.4 hPa | 0 mm | - | 20 W/m² | - |
| 1777386316 | 25° C | 89% | 1010.3 hPa | 0 mm | - | 24 W/m² | - |
| 1777386014 | 25° C | 89% | 1010 hPa | 0 mm | - | 23 W/m² | - |
| 1777385710 | 25° C | 89% | 1010.5 hPa | 0 mm | - | 19 W/m² | - |
| 1777385408 | 25° C | 89% | 1010.5 hPa | 0 mm | - | 14 W/m² | - |
| 1777385104 | 25° C | 89% | 1010.5 hPa | 0 mm | - | 12 W/m² | - |
| 1777384799 | 25° C | 89% | 1010.3 hPa | 0 mm | - | 14 W/m² | - |
| 1777384497 | 25° C | 89% | 1010.3 hPa | 0 mm | - | 14 W/m² | - |
| 1777384191 | 25° C | 89% | 1010.3 hPa | 0 mm | - | 23 W/m² | - |
| 1777383888 | 25° C | 89% | 1010 hPa | 0 mm | - | 26 W/m² | - |
| 1777383584 | 25° C | 89% | 1010.2 hPa | 0 mm | - | 15 W/m² | - |
| 1777383280 | 25° C | 89% | 1010.4 hPa | 0 mm | - | 22 W/m² | - |
| 1777382977 | 25° C | 89% | 1010.2 hPa | 0 mm | - | 29 W/m² | - |
| 1777382673 | 25° C | 89% | 1010.4 hPa | 0 mm | - | 24 W/m² | - |
| 1777382368 | 25° C | 89% | 1010 hPa | 0 mm | - | 13 W/m² | - |
| 1777382065 | 25° C | 89% | 1010 hPa | 0 mm | - | 18 W/m² | - |
| 1777381761 | 25° C | 89% | 1010.3 hPa | 0 mm | - | 16 W/m² | - |
| 1777381456 | 25° C | 89% | 1010.1 hPa | 0 mm | - | 17 W/m² | - |
| 1777381152 | 25° C | 89% | 1010.6 hPa | 0 mm | - | 37 W/m² | - |
| 1777380849 | 25° C | 89% | 1010.4 hPa | 0 mm | - | 26 W/m² | - |
| 1777380546 | 24.44° C | 89% | 1010 hPa | 0 mm | - | 23 W/m² | - |
* Rain latest hour (hover to see other rain measurements)
** Current wind speed in m/s (hover to see current wind gust speed)